Weather History for Reno, NV

Change the Weather History Date:

Friday, April 12, 2013

  Actual Average Record
Temperature  
Mean Temperature 55 °F 50 °F  
Max Temperature 71 °F 63 °F 86 °F (1888)
Min Temperature 38 °F 37 °F 18 °F (1948)
Degree Days  
Heating Degree Days 10 15  
Month to date heating degree days 152 194  
Since 1 July heating degree days 4113 4430  
Cooling Degree Days 0 0  
Month to date cooling degree days 0 0  
Year to date cooling degree days 0 0  
Growing Degree Days 4 (Base 50)    
Moisture  
Dew Point 26 °F    
Average Humidity 38    
Maximum Humidity 60    
Minimum Humidity 16    
Precipitation  
Precipitation 0.00 in 0.01 in 0.26 in (1956)
Month to date precipitation 0.23 0.19  
Year to date precipitation 0.64 3.00  
Snow  
Snow 0.00 in 0.00 in 2.30 in (1983)
Month to date snowfall T 0.3  
Since 1 July snowfall 9.4 21.3  
Snow Depth 0.00 in    
Sea Level Pressure  
Sea Level Pressure 29.88 in    
Wind  
Wind Speed 5 mph (SSW)    
Max Wind Speed 17 mph    
Max Gust Speed 23 mph    
Visibility 10 miles    
Events      
T = Trace of Precipitation, MM = Missing Value Source: NWS Daily Summary

Daily Weather History Graph

Daily Weather History Graph

Search for Another Location

Airport:

Trip Planner

Search our weather history database for the weather conditions in past years. The results will help you decide how hot, cold, wet, or windy it might be!

Date:

Astronomy

Apr. 12, 2013 Rise Set
Actual Time 6:25 AM PDT 7:34 PM PDT
Civil Twilight 5:58 AM PDT 8:02 PM PDT
Nautical Twilight 5:25 AM PDT 8:35 PM PDT
Astronomical Twilight 4:50 AM PDT 9:09 PM PDT
Moon 7:39 AM PDT (4/12) 10:08 PM PDT (4/12)
Length of Visible Light 14h 03m
Length of Day
13h 08m
Waxing Crescent, 6% of the Moon is Illuminated
Apr 12
Waxing Crescent
Apr 18
First Quarter
Apr 25
Full
May 2
Last Quarter
May 9
New

Hourly Weather History & Observations

Time (PDT) Temp. Windchill Dew Point Humidity Pressure Visibility Wind Dir Wind Speed Gust Speed Precip Events Conditions
12:55 AM 46.9 °F - 28.0 °F 48% 29.94 in 10.0 mi Calm Calm - N/A   Clear
1:55 AM 45.0 °F - 28.0 °F 52% 29.94 in 10.0 mi Calm Calm - N/A   Clear
2:55 AM 43.0 °F - 27.0 °F 53% 29.93 in 10.0 mi Calm Calm - N/A   Clear
3:55 AM 41.0 °F - 26.1 °F 55% 29.93 in 10.0 mi Calm Calm - N/A   Clear
4:55 AM 41.0 °F 39.0 °F 27.0 °F 57% 29.93 in 10.0 mi WNW 3.5 mph - N/A   Clear
5:55 AM 39.0 °F - 27.0 °F 62% 29.95 in 10.0 mi Calm Calm - N/A   Clear
6:55 AM 39.0 °F - 26.1 °F 60% 29.99 in 10.0 mi Calm Calm - N/A   Partly Cloudy
7:55 AM 41.0 °F - 28.0 °F 60% 30.01 in 10.0 mi Calm Calm - N/A   Scattered Clouds
8:55 AM 46.0 °F - 28.0 °F 50% 30.00 in 10.0 mi Calm Calm - N/A   Scattered Clouds
9:55 AM 51.1 °F - 28.0 °F 41% 29.97 in 10.0 mi Calm Calm - N/A   Scattered Clouds
10:55 AM 57.9 °F - 26.1 °F 30% 29.95 in 10.0 mi Variable 5.8 mph - N/A   Partly Cloudy
11:55 AM 61.0 °F - 24.1 °F 24% 29.92 in 10.0 mi SE 6.9 mph - N/A   Mostly Cloudy
12:55 PM 64.0 °F - 24.1 °F 22% 29.88 in 10.0 mi SSE 10.4 mph - N/A   Mostly Cloudy
1:55 PM 64.9 °F - 23.0 °F 20% 29.86 in 10.0 mi SE 8.1 mph - N/A   Mostly Cloudy
2:55 PM 68.0 °F - 23.0 °F 18% 29.83 in 10.0 mi ESE 6.9 mph - N/A   Mostly Cloudy
3:55 PM 70.0 °F - 24.1 °F 18% 29.79 in 10.0 mi ENE 6.9 mph - N/A   Mostly Cloudy
4:55 PM 70.0 °F - 24.1 °F 18% 29.78 in 10.0 mi SSE 5.8 mph - N/A   Mostly Cloudy
5:55 PM 71.1 °F - 23.0 °F 16% 29.77 in 10.0 mi Calm Calm - N/A   Mostly Cloudy
6:55 PM 70.0 °F - 28.9 °F 22% 29.75 in 10.0 mi West 17.3 mph 23.0 mph N/A   Mostly Cloudy
7:55 PM 64.9 °F - 30.9 °F 28% 29.78 in 10.0 mi West 15.0 mph - N/A   Scattered Clouds
8:55 PM 63.0 °F - 26.1 °F 25% 29.80 in 10.0 mi West 8.1 mph - N/A   Scattered Clouds
9:55 PM 61.0 °F - 26.1 °F 26% 29.82 in 10.0 mi WNW 8.1 mph 16.1 mph N/A   Scattered Clouds
10:55 PM 59.0 °F - 19.9 °F 22% 29.81 in 10.0 mi Variable 4.6 mph - N/A   Partly Cloudy
11:55 PM 57.0 °F - 23.0 °F 27% 29.81 in 10.0 mi Calm Calm - N/A   Scattered Clouds